Location: Nelson
(41.2830°S, 173.2830°E)
Time: 04:29:19
(UTC+12:00)

Cosmos 2221 - Pass Details

Date: 14 May 2021
Orbit: 592 x 615 km, 82.5° (Epoch: 17 June)

Event Time Altitude Azimuth Distance (km) Brightness Sun altitude
Rises 18:23:29 0° 187° (S) 2,872 5.9 -12.3°
Reaches altitude 10° 18:25:43 10° 185° (S) 1,962 5.0 -12.7°
Maximum altitude 18:30:03 78° 99° (E) 621 2.4 -13.5°
Drops below altitude 10° 18:34:21 10° 11° (N) 1,937 5.1 -14.2°
Sets 18:36:32 0° 9° (N) 2,833 6.0 -14.6°
